TA3MHA Weather Reports


time (UTC)temp
C
wind
direction
speed
KPH
gust
KPH
rain 1hr
cm
rain 24hr
cm
rain mn
cm
humidity
%
barometer
mb
20260506172500 16 283 0.0 1.6 0.00 0.00 0.00 52
20260506172000 16 297 1.6 3.2 0.00 0.00 0.00 50
20260506171500 17 358 0.0 0.0 0.00 0.00 0.00 47
20260506171000 17 156 0.0 0.0 0.00 0.00 0.00 47
20260506170500 18 224 0.0 0.0 0.00 0.00 0.00 45
20260506170000 18 344 0.0 0.0 0.00 0.00 0.00 44
20260506165500 18 321 0.0 1.6 0.00 0.00 0.00 43
20260506165000 18 327 0.0 1.6 0.00 0.00 0.00 43
20260506164500 19 14 0.0 3.2 0.00 0.00 0.00 43
20260506164000 19 349 3.2 4.8 0.00 0.00 0.00 41
20260506163500 20 14 1.6 4.8 0.00 0.00 0.00 40
20260506163000 20 35 3.2 4.8 0.00 0.00 0.00 39
20260506162500 20 39 3.2 4.8 0.00 0.00 0.00 38
20260506162000 20 13 3.2 4.8 0.00 0.00 0.00 38
20260506161500 20 353 3.2 4.8 0.00 0.00 0.00 37
20260506161000 20 337 4.8 4.8 0.00 0.00 0.00 38
20260506160500 20 269 3.2 4.8 0.00 0.00 0.00 39
20260506160001 20 359 6.4 6.4 0.00 0.00 0.00 38
20260506155500 20 31 4.8 8.0 0.00 0.00 0.00 38
20260506155000 20 13 4.8 6.4 0.00 0.00 0.00 38
20260506154500 21 3 6.4 9.7 0.00 0.00 0.00 37
20260506154000 21 37 3.2 6.4 0.00 0.00 0.00 38
20260506153500 20 338 4.8 8.0 0.00 0.00 0.00 38
20260506153000 21 6 6.4 11.3 0.00 0.00 0.00 38
20260506152500 21 2 8.0 8.0 0.00 0.00 0.00 38
20260506152000 21 295 4.8 6.4 0.00 0.00 0.00 39
20260506151500 21 359 11.3 14.5 0.00 0.00 0.00 39
20260506151000 21 344 6.4 6.4 0.00 0.00 0.00 38
20260506150500 21 329 3.2 6.4 0.00 0.00 0.00 38
20260506150000 21 352 6.4 8.0 0.00 0.00 0.00 37
20260506145500 21 308 3.2 8.0 0.00 0.00 0.00 37
20260506145000 21 350 8.0 9.7 0.00 0.00 0.00 37
20260506144500 21 353 9.7 12.9 0.00 0.00 0.00 37
20260506144000 22 19 4.8 8.0 0.00 0.00 0.00 36
20260506143500 22 287 8.0 8.0 0.00 0.00 0.00 35
20260506143000 22 333 4.8 11.3 0.00 0.00 0.00 35
20260506142500 22 242 4.8 9.7 0.00 0.00 0.00 35
20260506142000 22 305 6.4 6.4 0.00 0.00 0.00 35
20260506141500 22 66 3.2 9.7 0.00 0.00 0.00 34
20260506141000 22 324 6.4 11.3 0.00 0.00 0.00 35
20260506140500 22 265 8.0 12.9 0.00 0.00 0.00 34
20260506140000 22 256 6.4 9.7 0.00 0.00 0.00 34
20260506135500 22 20 9.7 12.9 0.00 0.00 0.00 34
20260506135000 22 334 4.8 12.9 0.00 0.00 0.00 35
20260506134500 22 265 12.9 16.1 0.00 0.00 0.00 35
20260506134000 22 235 3.2 6.4 0.00 0.00 0.00 35
20260506133500 23 262 4.8 14.5 0.00 0.00 0.00 35
20260506133000 22 359 14.5 14.5 0.00 0.00 0.00 37
20260506132500 23 359 8.0 9.7 0.00 0.00 0.00 35
20260506132000 23 325 6.4 11.3 0.00 0.00 0.00 33
20260506131500 23 297 4.8 11.3 0.00 0.00 0.00 33
20260506131000 23 351 4.8 12.9 0.00 0.00 0.00 33
20260506130500 23 305 9.7 12.9 0.00 0.00 0.00 33
20260506130000 23 284 3.2 6.4 0.00 0.00 0.00 33
20260506125500 23 352 12.9 14.5 0.00 0.00 0.00 34
20260506125000 23 344 9.7 9.7 0.00 0.00 0.00 34
20260506124500 23 273 9.7 12.9 0.00 0.00 0.00 34
20260506124000 23 229 3.2 6.4 0.00 0.00 0.00 32
20260506123500 23 342 6.4 8.0 0.00 0.00 0.00 34
20260506123000 23 249 6.4 12.9 0.00 0.00 0.00 34
20260506122500 23 262 8.0 14.5 0.00 0.00 0.00 35
20260506122000 23 353 6.4 9.7 0.00 0.00 0.00 33
20260506121500 23 309 12.9 14.5 0.00 0.00 0.00 36
20260506121000 23 3 3.2 4.8 0.00 0.00 0.00 33
20260506120500 23 296 9.7 11.3 0.00 0.00 0.00 35
20260506120000 23 207 6.4 9.7 0.00 0.00 0.00 33
20260506115500 23 356 4.8 8.0 0.00 0.00 0.00 33
20260506115000 23 323 6.4 8.0 0.00 0.00 0.00 35
20260506114500 23 252 9.7 9.7 0.00 0.00 0.00 35
20260506114000 23 275 4.8 11.3 0.00 0.00 0.00 35
20260506113500 23 247 3.2 6.4 0.00 0.00 0.00 35
20260506113000 23 10 3.2 6.4 0.00 0.00 0.00 34
20260506112500 23 19 4.8 4.8 0.00 0.00 0.00 34
20260506112000 23 3 4.8 9.7 0.00 0.00 0.00 34
20260506111500 22 45 3.2 4.8 0.00 0.00 0.00 36
20260506111000 22 327 3.2 6.4 0.00 0.00 0.00 36
20260506110500 22 352 6.4 8.0 0.00 0.00 0.00 35
20260506110000 23 11 6.4 8.0 0.00 0.00 0.00 34
20260506105500 23 254 8.0 8.0 0.00 0.00 0.00 34
20260506105000 23 326 4.8 9.7 0.00 0.00 0.00 35
20260506104500 23 26 4.8 4.8 0.00 0.00 0.00 35
20260506104000 23 254 1.6 6.4 0.00 0.00 0.00 34
20260506103500 22 0 8.0 9.7 0.00 0.00 0.00 37
20260506103000 23 234 6.4 8.0 0.00 0.00 0.00 34
20260506102500 23 274 3.2 3.2 0.00 0.00 0.00 33
20260506102000 22 358 6.4 8.0 0.00 0.00 0.00 36
20260506101500 22 241 1.6 6.4 0.00 0.00 0.00 37
20260506101001 21 279 1.6 4.8 0.00 0.00 0.00 39
20260506100500 21 88 6.4 8.0 0.00 0.00 0.00 38
20260506100000 21 354 4.8 8.0 0.00 0.00 0.00 37
20260506095500 21 35 3.2 8.0 0.00 0.00 0.00 40
20260506095000 21 355 8.0 8.0 0.00 0.00 0.00 37
20260506094500 21 99 4.8 6.4 0.00 0.00 0.00 37
20260506094000 22 0 3.2 4.8 0.00 0.00 0.00 36
20260506093500 22 29 4.8 8.0 0.00 0.00 0.00 39
20260506093000 21 345 4.8 4.8 0.00 0.00 0.00 38
20260506092500 21 349 12.9 16.1 0.00 0.00 0.00 38
20260506092000 21 345 9.7 11.3 0.00 0.00 0.00 35
20260506091500 21 154 3.2 8.0 0.00 0.00 0.00 33
20260506091000 21 197 3.2 4.8 0.00 0.00 0.00 34
20260506090500 21 278 3.2 6.4 0.00 0.00 0.00 34
20260506090000 21 39 3.2 4.8 0.00 0.00 0.00 35
20260506085500 21 331 4.8 8.0 0.00 0.00 0.00 33
20260506085000 21 0 6.4 9.7 0.00 0.00 0.00 32
20260506084500 21 28 6.4 8.0 0.00 0.00 0.00 33
20260506084000 21 6 4.8 6.4 0.00 0.00 0.00 36
20260506083500 21 262 3.2 4.8 0.00 0.00 0.00 32
20260506083000 21 121 0.0 6.4 0.00 0.00 0.00 36
20260506082500 21 357 9.7 11.3 0.00 0.00 0.00 40
20260506082000 21 272 8.0 8.0 0.00 0.00 0.00 35
20260506081500 21 34 4.8 4.8 0.00 0.00 0.00 36
20260506081000 21 13 3.2 6.4 0.00 0.00 0.00 36
20260506080500 20 350 3.2 6.4 0.00 0.00 0.00 40
20260506073500 19 22 3.2 4.8 0.00 0.00 0.00 47
20260506073000 19 100 6.4 6.4 0.00 0.00 0.00 46
20260506072500 19 51 0.0 3.2 0.00 0.00 0.00 46
20260506072000 18 109 1.6 4.8 0.00 0.00 0.00 47
20260506071500 17 16 4.8 4.8 0.00 0.00 0.00 47
20260506071000 18 14 9.7 9.7 0.00 0.00 0.00 47
20260506070500 18 275 4.8 4.8 0.00 0.00 0.00 46
20260506062500 17 29 4.8 4.8 0.00 0.00 0.00 49
20260506062000 16 25 3.2 3.2 0.00 0.00 0.00 48
20260506061500 16 354 3.2 3.2 0.00 0.00 0.00 51
20260506061000 16 18 3.2 4.8 0.00 0.00 0.00 50
20260506060500 16 16 3.2 4.8 0.00 0.00 0.00 54
20260506051000 13 317 1.6 3.2 0.00 0.00 0.00 61
20260506050500 12 332 0.0 3.2 0.00 0.00 0.00 63
20260506045000 11 182 0.0 0.0 0.00 0.00 0.00 67
20260506044500 10 144 0.0 0.0 0.00 0.00 0.00 68
20260506044000 10 217 1.6 1.6 0.00 0.00 0.00 66
20260506043500 10 135 0.0 0.0 0.00 0.00 0.00 66
20260506043000 10 108 0.0 0.0 0.00 0.00 0.00 72
20260506042500 10 11 0.0 1.6 0.00 0.00 0.00 71
20260506042000 10 322 0.0 1.6 0.00 0.00 0.00 68
20260506041500 10 283 3.2 3.2 0.00 0.00 0.00 66
20260506041000 10 197 0.0 3.2 0.00 0.00 0.00 66
20260506040500 10 199 3.2 3.2 0.00 0.00 0.00 66
20260506040000 10 230 0.0 1.6 0.00 0.00 0.00 65
20260506035500 10 63 0.0 1.6 0.00 0.00 0.00 64
20260506035000 9 35 3.2 4.8 0.00 0.00 0.00 65
20260506034500 8 356 3.2 3.2 0.00 0.00 0.00 67
20260506034000 8 306 0.0 1.6 0.00 0.00 0.00 68
20260506033500 8 357 3.2 3.2 0.00 0.00 0.00 67
20260506033000 8 26 1.6 1.6 0.00 0.00 0.00 67
20260506032500 8 175 1.6 1.6 0.00 0.00 0.00 69
20260506032000 7 29 3.2 4.8 0.00 0.00 0.00 72
20260506031500 7 171 0.0 0.0 0.00 0.00 0.00 73
20260506031001 7 10 1.6 3.2 0.00 0.00 0.00 73
20260506030500 7 338 3.2 3.2 0.00 0.00 0.00 73
20260506030000 7 283 0.0 0.0 0.00 0.00 0.00 72
20260506025500 7 205 0.0 3.2 0.00 0.00 0.00 75
20260506025000 7 298 4.8 4.8 0.00 0.00 0.00 73
20260506024500 7 325 0.0 3.2 0.00 0.00 0.00 71
20260506024000 8 287 3.2 4.8 0.00 0.00 0.00 69
20260506023500 8 261 1.6 3.2 0.00 0.00 0.00 67
20260506023000 8 283 0.0 0.0 0.00 0.00 0.00 67
20260506022500 8 317 4.8 4.8 0.00 0.00 0.00 66
20260506022000 8 147 1.6 3.2 0.00 0.00 0.00 68
20260506021500 8 98 1.6 3.2 0.00 0.00 0.00 69
20260506021000 8 137 0.0 1.6 0.00 0.00 0.00 68
20260506020500 8 65 1.6 1.6 0.00 0.00 0.00 67
20260506020000 8 48 3.2 3.2 0.00 0.00 0.00 68
20260506015500 8 154 3.2 3.2 0.00 0.00 0.00 69
20260506015000 8 32 3.2 3.2 0.00 0.00 0.00 69
20260506014500 8 356 0.0 0.0 0.00 0.00 0.00 70
20260506014000 7 283 3.2 3.2 0.00 0.00 0.00 71
20260506013500 7 326 1.6 3.2 0.00 0.00 0.00 69
20260506013000 7 84 0.0 3.2 0.00 0.00 0.00 70
20260506012500 7 172 0.0 0.0 0.00 0.00 0.00 70
20260506012000 7 280 0.0 3.2 0.00 0.00 0.00 71
20260506011500 7 131 3.2 3.2 0.00 0.00 0.00 72
20260506011000 7 89 0.0 0.0 0.00 0.00 0.00 72
20260506010500 8 272 4.8 6.4 0.00 0.00 0.00 67
20260506010000 9 287 3.2 4.8 0.00 0.00 0.00 62
20260506005500 9 12 1.6 3.2 0.00 0.00 0.00 62
20260506005000 8 52 1.6 3.2 0.00 0.00 0.00 65
20260506004500 7 119 3.2 4.8 0.00 0.00 0.00 71
20260506004000 7 143 3.2 3.2 0.00 0.00 0.00 73
20260506003500 8 296 4.8 4.8 0.00 0.00 0.00 69
20260506003000 9 297 4.8 4.8 0.00 0.00 0.00 63
20260506002500 9 163 0.0 0.0 0.00 0.00 0.00 64
20260506002000 8 216 0.0 1.6 0.00 0.00 0.00 66
20260506001500 8 120 3.2 3.2 0.00 0.00 0.00 65
20260506001000 8 85 3.2 4.8 0.00 0.00 0.00 65
20260506000500 8 84 4.8 4.8 0.00 0.00 0.00 68
20260506000000 8 119 3.2 4.8 0.00 0.00 0.00 70
20260505235500 7 137 3.2 4.8 0.00 0.00 0.00 72
20260505235000 7 73 3.2 4.8 0.00 0.00 0.00 73
20260505234500 7 32 0.0 0.0 0.00 0.00 0.00 73
20260505234000 7 259 4.8 4.8 0.00 0.00 0.00 72
20260505233500 8 315 0.0 0.0 0.00 0.00 0.00 68
20260505233000 8 288 0.0 0.0 0.00 0.00 0.00 68
20260505232500 7 124 0.0 0.0 0.00 0.00 0.00 72
20260505232000 7 10 0.0 1.6 0.00 0.00 0.00 72
20260505231500 7 263 1.6 3.2 0.00 0.00 0.00 70
20260505231000 8 264 3.2 3.2 0.00 0.00 0.00 69
20260505230500 8 310 0.0 0.0 0.00 0.00 0.00 68
20260505230000 8 164 0.0 0.0 0.00 0.00 0.00 69
20260505225500 7 172 1.6 1.6 0.00 0.00 0.00 70
20260505225000 8 177 0.0 0.0 0.00 0.00 0.00 68
20260505224500 8 252 1.6 3.2 0.00 0.00 0.00 66
20260505224000 9 353 0.0 1.6 0.00 0.00 0.00 64
20260505223500 9 316 3.2 3.2 0.00 0.00 0.00 64
20260505223000 9 336 0.0 0.0 0.00 0.00 0.00 63
20260505222500 9 115 0.0 1.6 0.00 0.00 0.00 64
20260505222000 10 48 1.6 1.6 0.00 0.00 0.00 62
20260505221500 9 147 1.6 3.2 0.00 0.00 0.00 63
20260505221000 8 171 3.2 3.2 0.00 0.00 0.00 65
20260505220500 8 167 0.0 1.6 0.00 0.00 0.00 66
20260505220000 8 353 1.6 3.2 0.00 0.00 0.00 66
20260505215500 9 343 1.6 3.2 0.00 0.00 0.00 64
20260505215000 8 26 0.0 1.6 0.00 0.00 0.00 66
20260505214500 8 325 4.8 4.8 0.00 0.00 0.00 68
20260505214000 8 329 3.2 3.2 0.00 0.00 0.00 65
20260505213500 10 53 3.2 3.2 0.00 0.00 0.00 63
20260505213000 10 75 0.0 1.6 0.00 0.00 0.00 60
20260505212500 10 182 1.6 3.2 0.00 0.00 0.00 62
20260505212000 10 6 3.2 4.8 0.00 0.00 0.00 62
20260505211500 9 201 0.0 3.2 0.00 0.00 0.00 62
20260505211001 10 283 3.2 3.2 0.00 0.00 0.00 62
20260505210500 10 330 0.0 3.2 0.00 0.00 0.00 61
20260505210000 10 310 3.2 3.2 0.00 0.00 0.00 62
20260505205500 9 2 3.2 6.4 0.00 0.00 0.00 64
20260505205000 10 338 4.8 8.0 0.00 0.00 0.00 63
20260505204500 10 266 1.6 3.2 0.00 0.00 0.00 61
20260505204001 9 196 3.2 4.8 0.00 0.00 0.00 64
20260505203500 10 294 4.8 6.4 0.00 0.00 0.00 63
20260505203000 10 355 3.2 4.8 0.00 0.00 0.00 60
20260505202500 10 18 3.2 3.2 0.00 0.00 0.00 61
20260505202000 10 339 6.4 6.4 0.00 0.00 0.00 58
20260505201500 11 255 0.0 1.6 0.00 0.00 0.00 55
20260505201000 11 115 3.2 3.2 0.00 0.00 0.00 55
20260505200500 11 178 3.2 6.4 0.00 0.00 0.00 55
20260505200000 11 233 0.0 1.6 0.00 0.00 0.00 54
20260505195500 10 190 4.8 6.4 0.00 0.00 0.00 58
20260505195000 9 24 0.0 3.2 0.00 0.00 0.00 64
20260505194500 9 0 3.2 4.8 0.00 0.00 0.00 66
20260505194000 10 305 3.2 6.4 0.00 0.00 0.00 62
20260505193500 11 309 1.6 3.2 0.00 0.00 0.00 54
20260505193000 11 57 1.6 1.6 0.00 0.00 0.00 54
20260505192500 11 163 1.6 3.2 0.00 0.00 0.00 56
20260505192000 11 172 3.2 4.8 0.00 0.00 0.00 57
20260505191501 11 356 0.0 1.6 0.00 0.00 0.00 57
20260505191001 11 357 3.2 4.8 0.00 0.00 0.00 57
20260505190500 11 327 0.0 1.6 0.00 0.00 0.00 56
20260505190000 12 228 3.2 3.2 0.00 0.00 0.00 54
20260505185501 12 201 0.0 3.2 0.00 0.00 0.00 53
20260505185001 12 164 1.6 3.2 0.00 0.00 0.00 55
20260505184504 12 194 8.0 8.0 0.00 0.00 0.00 55
20260505184001 12 223 8.0 12.9 0.00 0.00 0.00 55
20260505183501 12 251 4.8 8.0 0.00 0.00 0.00 55
20260505183001 12 209 9.7 12.9 0.00 0.00 0.00 56
20260505182501 12 206 8.0 11.3 0.00 0.00 0.00 57
20260505182001 12 237 6.4 9.7 0.00 0.00 0.00 57
20260505181500 12 192 8.0 11.3 0.00 0.00 0.00 56
20260505181000 12 206 8.0 9.7 0.00 0.00 0.00 56
20260505180500 12 191 9.7 11.3 0.00 0.00 0.00 56
20260505180000 12 193 9.7 11.3 0.00 0.00 0.00 55
20260505175501 12 190 11.3 11.3 0.00 0.00 0.00 55
20260505175000 13 202 11.3 11.3 0.00 0.00 0.00 55
20260505174500 13 220 3.2 4.8 0.00 0.00 0.00 55
20260505174001 14 235 6.4 6.4 0.00 0.00 0.00 51
20260505173500 14 260 3.2 3.2 0.00 0.00 0.00 46
20260505173001 15 342 1.6 1.6 0.00 0.00 0.00 47